Theta_e
279 279 279 279 280 280 280 280 280 280 280 280 279 279 279 279 279 278 277 277 276 276 275 275 275 275 275 274 274 274 274 274 274 274 274 274 274 274 273 273 273 274
278 279 279 278 279 279 279 279 280 279 279 279 279 279 279 279 278 278 277 277 276 276 275 275 275 274 274 274 274 274 274 274 274 273 273 273 274 273 273 273 273 273
278 278 278 278 278 278 279 279 279 279 279 279 278 278 278 278 277 277 277 277 276 276 275 275 275 274 274 274 274 274 274 274 273 273 273 273 273 273 273 273 273 273
277 277 277 277 277 277 278 278 278 278 278 278 278 277 277 277 277 276 277 276 276 276 275 275 274 274 274 273 273 273 273 273 273 273 273 273 273 273 272 272 272 272
276 276 276 276 276 276 276 277 277 277 277 277 277 277 277 277 276 276 276 276 276 276 275 275 274 274 274 273 273 273 273 273 273 272 272 272 272 272 272 272 271 271
275 275 275 275 275 275 275 275 276 276 276 276 276 276 276 276 276 275 275 275 275 275 275 275 274 274 273 273 273 273 273 273 272 272 271 272 272 272 271 271 271 271
275 274 274 274 274 274 274 275 275 275 275 275 275 276 276 276 276 275 275 275 275 275 275 275 274 273 273 272 272 272 272 272 271 271 271 271 271 271 271 270 270 270
274 274 274 273 273 273 274 274 274 274 274 274 275 275 275 275 276 275 275 275 274 274 274 274 274 273 272 272 272 272 271 271 271 271 271 271 271 270 270 270 270 269
274 273 273 273 273 273 273 273 273 273 273 274 274 274 275 275 275 275 275 274 274 274 274 273 273 272 272 271 271 271 271 271 270 270 270 270 270 270 270 269 269 269
273 273 273 272 272 272 272 272 272 272 272 273 273 273 273 274 274 274 274 274 273 273 273 272 272 271 271 271 270 270 270 270 270 269 269 269 269 269 269 269 268 268
273 273 272 272 272 272 272 272 271 271 271 272 272 272 272 272 273 273 273 273 273 272 272 272 271 271 270 270 270 270 269 269 269 269 269 269 269 269 268 268 268 268
273 272 272 272 272 272 271 271 271 271 271 271 271 271 270 271 271 271 271 271 271 271 271 271 270 270 270 269 269 269 269 269 269 268 268 268 268 268 268 268 268 268
272 272 272 271 271 271 271 270 270 270 270 270 270 270 270 270 270 270 270 270 270 270 270 269 269 269 269 269 269 268 268 268 268 268 268 268 268 268 268 268 268 268
272 272 271 271 271 270 270 270 270 270 270 270 270 270 269 269 269 269 269 269 269 269 269 269 269 268 268 268 268 268 267 267 267 267 267 267 267 267 268 268 267 268
272 271 271 270 270 270 270 270 270 269 269 269 269 269 269 269 268 268 268 268 268 268 268 268 268 267 267 267 267 267 267 267 267 267 267 267 268 268 268 268 268 268
271 271 270 270 270 270 270 270 269 269 269 269 268 268 268 268 268 268 267 267 267 267 267 267 266 266 266 266 266 267 267 267 267 268 268 268 268 268 268 268 268 268
271 270 270 270 269 269 269 269 269 268 268 268 267 267 267 267 267 266 266 266 266 266 266 266 266 266 266 266 266 267 268 268 268 268 268 268 268 268 268 268 268 269
270 270 269 269 269 268 268 268 268 267 267 267 266 266 266 266 265 265 265 265 265 265 265 265 265 265 265 265 266 267 267 268 268 268 268 269 269 269 269 269 269 269
269 269 269 269 268 268 268 267 267 266 266 266 265 265 265 265 264 264 264 264 264 264 264 264 264 264 264 264 265 266 267 268 268 268 268 269 269 268 268 268 268 268
269 268 268 268 267 267 267 267 266 266 265 265 265 265 264 264 264 264 264 264 264 263 263 263 264 264 264 264 265 266 267 267 268 268 268 268 268 268 268 268 268 268
268 268 268 267 267 266 266 266 266 265 265 265 264 264 264 264 264 263 263 263 263 263 263 263 263 263 263 264 265 265 266 267 267 267 267 267 267 267 267 267 267 267
267 267 267 266 266 266 265 265 265 265 265 264 264 264 264 264 263 263 262 262 262 262 262 262 263 263 263 263 264 265 266 266 267 267 266 266 266 266 267 267 267 267
267 266 266 265 265 265 265 265 264 264 264 264 264 263 263 263 263 262 262 262 262 262 261 261 262 263 263 263 264 265 266 266 266 266 266 266 266 266 266 266 266 266
266 265 265 265 265 264 264 264 264 264 264 263 263 262 262 262 262 262 262 261 261 261 261 261 262 262 263 263 263 265 265 266 266 266 266 266 265 265 265 265 265 265
265 264 264 264 264 263 263 263 263 263 263 262 262 262 262 262 262 261 261 261 261 261 261 261 262 262 263 263 264 265 266 266 266 265 265 265 264 264 264 264 264 264
264 263 263 263 263 262 262 262 262 262 262 262 262 262 261 261 261 261 261 261 261 261 261 262 262 263 263 264 265 266 266 266 265 265 264 264 264 264 264 264 264 264
Wind_Speed
20 19 20 21 21 21 22 23 23 23 23 22 22 21 20 18 15 15 16 15 15 14 13 12 11 9 8 7 6 6 6 6 6 6 6 8 8 7 8 10 10 10
19 19 20 21 21 21 22 23 24 24 24 24 23 22 23 22 18 18 19 17 16 16 15 14 13 12 10 8 7 7 7 6 6 6 6 8 9 8 9 10 10 11
18 19 20 20 20 21 21 21 22 22 22 23 23 22 22 22 20 21 22 20 18 17 17 16 15 14 13 11 9 8 8 7 7 6 7 8 9 9 9 10 10 11
19 19 19 19 19 19 20 19 19 20 20 20 20 21 21 20 20 21 21 21 20 18 17 17 16 15 14 13 11 10 8 8 7 7 7 8 9 9 10 10 11 12
18 17 17 17 17 18 19 18 18 18 18 18 18 18 18 18 19 19 18 19 20 19 17 17 17 15 14 13 11 10 9 8 7 7 7 9 9 9 10 10 12 13
16 16 17 17 17 18 19 18 18 19 19 19 18 17 17 16 17 18 18 17 18 19 18 17 17 16 14 13 12 10 9 8 7 7 8 9 9 9 10 11 12 13
15 16 17 17 18 19 19 19 19 19 19 19 19 18 17 16 17 17 17 17 17 18 18 18 16 14 13 12 11 10 9 9 8 8 9 10 10 10 10 11 13 15
16 17 17 18 18 18 18 18 19 19 19 19 19 19 18 17 17 17 17 16 16 17 17 17 15 13 12 11 11 10 9 9 8 8 9 10 10 11 11 12 14 17
16 17 17 16 17 18 17 18 19 19 19 19 19 19 18 18 17 17 16 16 15 15 15 15 15 15 16 15 13 11 10 9 9 9 10 11 12 13 14 15 17 20
16 18 17 16 17 18 18 18 19 19 18 18 19 19 18 18 17 17 16 15 15 14 14 14 16 16 16 14 12 11 10 11 11 11 13 14 16 17 18 19 21 22
17 18 18 18 18 17 18 19 19 19 19 18 17 17 18 17 16 15 14 13 13 12 11 12 12 11 10 10 10 10 10 11 12 14 16 17 19 20 20 20 21 22
18 18 18 18 18 17 18 19 19 19 19 17 16 16 16 16 15 14 12 11 10 8 8 8 8 8 9 10 11 11 12 13 15 17 18 19 20 21 21 22 22 22
18 17 18 18 18 18 19 19 19 19 18 16 14 14 14 14 14 13 12 10 9 8 7 8 9 10 11 13 13 14 16 17 18 19 20 20 21 21 21 19 19 20
18 17 17 17 17 18 19 19 18 18 16 14 14 14 14 14 14 14 14 13 12 11 11 11 12 13 14 14 16 17 19 20 20 20 20 20 19 18 17 16 17 18
16 16 17 17 17 17 19 18 17 17 16 15 16 15 15 15 15 15 16 16 15 15 13 12 14 16 16 16 18 20 21 22 22 21 21 22 20 17 15 15 16 16
16 16 17 17 17 18 18 17 16 16 16 16 17 17 16 16 16 15 17 17 16 15 15 16 17 19 20 20 19 20 20 21 22 21 21 21 20 18 16 16 16 15
16 16 17 17 18 19 18 16 15 15 16 17 17 17 16 16 16 15 17 18 17 18 19 21 22 22 21 20 19 19 19 19 20 20 20 19 19 18 17 16 16 15
16 17 18 18 17 17 16 14 14 15 16 17 16 15 14 15 16 16 16 18 19 21 22 23 23 23 22 20 19 20 20 19 20 20 19 18 17 16 15 15 15 13
17 18 18 17 16 17 16 14 13 14 15 14 14 14 14 17 20 19 18 19 20 21 23 23 24 24 23 22 21 21 21 20 20 20 19 18 16 15 16 17 17 14
18 17 17 16 17 17 16 15 14 15 14 13 13 13 14 16 18 18 19 20 21 21 23 24 25 24 23 22 21 21 21 21 20 19 19 17 15 14 14 16 17 15
17 16 15 16 17 16 16 15 14 14 14 13 13 13 13 13 13 14 18 20 20 21 22 24 25 23 22 21 20 20 20 19 17 16 14 12 11 11 12 13 14 14
16 15 16 16 16 15 15 15 14 14 13 12 12 12 12 12 11 12 15 18 20 21 22 23 24 22 19 18 18 18 17 15 15 14 11 10 10 11 12 12 12 12
13 14 16 17 16 15 16 16 15 14 12 11 12 13 13 12 11 12 13 16 20 21 20 21 22 19 16 16 17 17 15 14 13 11 9 10 11 11 11 11 11 11
13 15 16 17 16 16 16 16 15 14 13 13 15 16 15 13 12 13 13 13 17 19 18 18 19 17 14 14 16 16 14 13 11 8 8 9 9 10 10 8 9 9
13 15 16 16 16 15 16 16 16 17 17 18 17 15 13 11 10 11 11 12 14 16 16 15 16 16 12 11 15 16 14 13 10 6 8 9 5 5 6 4 5 7
15 15 15 15 15 16 18 19 19 19 19 18 15 12 10 10 10 11 15 16 15 15 14 13 14 12 9 10 14 12 7 7 8 5 5 7 4 2 4 3 4 6
Wind_Direction
318 317 314 311 308 305 303 301 298 294 291 284 279 273 269 267 257 243 245 244 239 240 240 242 248 252 257 264 267 272 279 286 302 309 314 323 323 322 327 328 324 318
322 322 319 316 313 311 309 306 303 299 296 292 287 281 276 272 262 252 253 250 244 244 243 240 242 243 244 244 246 255 265 272 285 294 301 313 315 316 322 324 322 319
326 324 322 320 319 318 318 314 310 306 303 300 297 292 286 278 269 263 262 255 246 243 242 239 239 241 242 240 241 247 254 260 272 282 290 301 306 309 316 319 318 318
325 325 324 324 325 326 326 324 321 318 314 309 304 299 294 287 279 274 269 260 251 243 239 238 237 236 238 238 239 243 248 253 262 271 282 292 298 302 309 314 313 313
323 325 326 326 327 329 329 328 328 326 322 317 311 305 299 292 286 280 272 264 256 248 240 237 235 233 233 233 235 239 244 250 256 263 275 285 292 297 303 308 309 309
323 324 325 326 327 328 328 327 327 326 324 321 317 313 307 299 291 285 278 268 260 255 247 240 235 231 228 228 231 236 242 249 253 260 272 281 287 292 298 303 303 303
321 322 324 325 326 326 325 325 325 324 322 319 316 314 310 304 297 293 288 276 264 259 253 246 239 232 227 228 232 237 243 248 254 262 271 278 284 289 295 298 298 298
318 320 321 323 325 325 325 326 326 324 322 320 316 314 311 306 301 298 296 285 271 262 255 249 240 230 227 230 234 240 246 250 256 264 270 277 282 288 292 294 294 295
313 317 319 322 325 325 326 328 327 326 324 322 319 317 314 309 304 300 297 289 277 266 256 244 236 233 236 239 241 245 249 253 261 266 272 279 284 288 292 293 293 293
310 315 318 321 323 323 324 326 326 326 325 323 321 320 317 313 308 303 298 292 283 273 258 244 237 238 241 244 246 249 254 261 268 272 277 283 288 292 295 293 292 292
307 312 315 319 320 319 320 322 323 323 323 323 322 323 324 321 317 312 305 299 292 280 265 250 243 242 244 248 253 257 263 269 274 280 285 288 291 294 293 292 291 289
304 308 312 316 318 318 319 320 320 320 320 320 321 325 329 330 330 327 321 313 304 290 272 259 254 256 258 261 265 268 273 275 279 282 285 288 291 292 292 292 290 287
301 305 308 312 314 315 316 317 317 316 316 316 317 322 326 330 332 332 329 324 316 306 291 281 278 276 276 276 278 278 280 282 284 285 285 286 287 288 289 287 286 286
297 302 305 308 311 313 313 313 313 311 309 308 310 313 317 322 322 321 319 316 312 306 299 294 291 289 285 283 283 284 284 285 287 286 286 287 285 283 281 278 282 286
294 300 303 306 310 312 312 309 308 307 304 304 305 306 309 314 315 314 312 310 308 304 298 293 292 291 288 287 287 289 290 291 292 290 288 287 283 279 276 276 280 280
293 298 301 306 310 312 310 306 305 305 303 302 303 303 305 308 308 308 308 306 303 300 297 295 293 293 292 292 290 289 288 289 290 289 287 284 279 275 274 278 276 271
293 299 302 305 308 309 307 303 301 304 305 305 304 302 302 304 304 304 304 303 301 299 299 298 296 295 294 293 290 286 283 282 281 281 278 276 273 267 265 272 272 265
296 301 303 304 306 306 303 297 298 303 307 308 306 303 303 304 305 304 302 302 300 298 298 297 295 295 295 293 291 287 284 280 277 276 275 272 271 266 263 272 276 265
300 302 302 302 303 304 300 295 297 302 306 306 304 302 303 306 308 306 303 302 300 298 297 295 293 293 294 293 291 287 283 280 277 276 275 272 272 271 269 273 273 263
303 302 300 300 301 302 298 295 297 300 302 303 301 299 300 304 305 303 300 301 301 299 297 295 293 294 294 293 289 286 284 282 279 277 277 276 275 273 269 268 266 258
306 301 299 300 301 300 297 295 295 296 297 299 299 298 297 296 296 297 299 302 303 302 300 297 295 296 296 293 289 287 285 282 280 279 275 274 274 271 265 263 261 251
305 302 301 301 301 299 296 294 292 291 293 295 295 295 295 293 291 292 297 304 307 306 304 300 298 299 299 295 290 288 285 281 278 275 270 273 275 269 261 257 253 251
303 302 302 302 301 299 297 296 295 293 294 295 295 296 295 292 290 293 299 305 309 310 307 302 301 303 303 298 293 288 283 277 271 263 263 273 271 260 256 254 254 255
302 302 302 302 301 299 298 298 297 295 296 298 299 298 295 292 293 299 304 305 307 310 308 302 303 306 307 302 294 287 279 270 261 248 252 263 260 252 253 255 256 258
302 302 302 301 299 298 300 301 300 299 301 303 302 296 291 291 294 300 305 306 306 308 307 303 305 308 311 309 302 295 280 258 239 225 237 238 230 242 248 253 266 267
305 304 302 301 303 305 306 306 306 307 307 305 300 291 285 291 299 306 312 313 312 310 307 306 310 311 318 329 323 316 294 242 218 196 209 215 205 228 243 258 284 282